TimeEST,TemperatureF,Dew PointF,Humidity,Sea Level PressureIn,VisibilityMPH,Wind Direction,Wind SpeedMPH,Gust SpeedMPH,PrecipitationIn,Events,Conditions,WindDirDegrees,DateUTC
12:15 AM,60.8,60.8,100,29.67,10.0,West,25.3,39.1,N/A,,Overcast,270,2012-12-21 05:15:00
12:35 AM,55.4,48.2,77,29.69,10.0,West,16.1,28.8,N/A,,Mostly Cloudy,270,2012-12-21 05:35:00
12:55 AM,55.4,48.2,77,29.69,10.0,West,19.6,27.6,N/A,,Overcast,270,2012-12-21 05:55:00
1:15 AM,53.6,48.2,82,29.70,10.0,West,16.1,28.8,N/A,,Overcast,270,2012-12-21 06:15:00
1:35 AM,53.6,44.6,72,29.70,10.0,West,23.0,34.5,N/A,,Overcast,270,2012-12-21 06:35:00
1:55 AM,50.0,37.4,62,29.73,10.0,West,17.3,39.1,N/A,,Mostly Cloudy,280,2012-12-21 06:55:00
2:15 AM,46.4,33.8,62,29.75,10.0,West,20.7,31.1,N/A,,Scattered Clouds,280,2012-12-21 07:15:00
2:35 AM,46.4,33.8,62,29.75,10.0,West,21.9,35.7,N/A,,Scattered Clouds,280,2012-12-21 07:35:00
2:55 AM,44.6,32.0,61,29.75,10.0,West,20.7,31.1,N/A,,Clear,270,2012-12-21 07:55:00
3:15 AM,44.6,32.0,61,29.76,10.0,West,21.9,32.2,N/A,,Clear,270,2012-12-21 08:15:00
3:35 AM,44.6,32.0,61,29.76,10.0,West,19.6,27.6,N/A,,Clear,270,2012-12-21 08:35:00
3:55 AM,44.6,33.8,66,29.76,10.0,West,18.4,25.3,N/A,,Clear,270,2012-12-21 08:55:00
4:15 AM,44.6,33.8,66,29.76,10.0,West,13.8,23.0,N/A,,Clear,260,2012-12-21 09:15:00
4:35 AM,44.6,33.8,66,29.76,10.0,West,18.4,27.6,N/A,,Unknown,260,2012-12-21 09:35:00
4:55 AM,44.6,32.0,61,29.77,10.0,West,18.4,32.2,N/A,,Clear,270,2012-12-21 09:55:00
5:15 AM,44.6,32.0,61,29.78,10.0,West,11.5,27.6,N/A,,Clear,270,2012-12-21 10:15:00
5:35 AM,42.8,32.0,66,29.78,10.0,West,17.3,25.3,N/A,,Clear,260,2012-12-21 10:35:00
5:55 AM,42.8,32.0,66,29.79,10.0,West,15.0,24.2,N/A,,Clear,260,2012-12-21 10:55:00
6:15 AM,42.8,32.0,66,29.79,10.0,West,17.3,25.3,N/A,,Clear,260,2012-12-21 11:15:00
6:35 AM,42.8,32.0,66,29.80,10.0,WSW,15.0,20.7,N/A,,Clear,250,2012-12-21 11:35:00
6:55 AM,42.8,32.0,66,29.81,10.0,West,13.8,20.7,N/A,,Clear,260,2012-12-21 11:55:00
7:15 AM,42.8,32.0,66,29.80,10.0,West,13.8,20.7,N/A,,Clear,260,2012-12-21 12:15:00
7:35 AM,42.8,32.0,66,29.81,10.0,WSW,15.0,28.8,N/A,,Clear,250,2012-12-21 12:35:00
7:55 AM,42.8,32.0,66,29.82,10.0,West,12.7,21.9,N/A,,Clear,260,2012-12-21 12:55:00
8:15 AM,42.8,32.0,66,29.82,10.0,WSW,16.1,24.2,N/A,,Clear,250,2012-12-21 13:15:00
8:35 AM,42.8,32.0,66,29.82,10.0,WSW,16.1,27.6,N/A,,Clear,250,2012-12-21 13:35:00
8:55 AM,44.6,32.0,61,29.83,10.0,West,15.0,25.3,N/A,,Clear,260,2012-12-21 13:55:00
9:15 AM,44.6,32.0,61,29.83,10.0,WSW,24.2,32.2,N/A,,Clear,250,2012-12-21 14:15:00
9:35 AM,44.6,32.0,61,29.84,10.0,West,15.0,24.2,N/A,,Clear,270,2012-12-21 14:35:00
9:55 AM,46.4,32.0,57,29.84,10.0,WSW,21.9,27.6,N/A,,Clear,250,2012-12-21 14:55:00
10:15 AM,44.6,30.2,57,29.84,10.0,West,19.6,33.4,N/A,,Clear,260,2012-12-21 15:15:00
10:35 AM,46.4,30.2,53,29.83,10.0,West,19.6,31.1,N/A,,Clear,270,2012-12-21 15:35:00
10:55 AM,46.4,32.0,57,29.83,10.0,West,11.5,26.5,N/A,,Clear,260,2012-12-21 15:55:00
11:15 AM,46.4,30.2,53,29.83,10.0,West,18.4,32.2,N/A,,Clear,270,2012-12-21 16:15:00
11:35 AM,46.4,30.2,53,29.82,10.0,West,17.3,27.6,N/A,,Clear,270,2012-12-21 16:35:00
11:55 AM,46.4,30.2,53,29.81,10.0,West,16.1,27.6,N/A,,Clear,270,2012-12-21 16:55:00
12:15 PM,48.2,30.2,50,29.80,10.0,West,21.9,31.1,N/A,,Clear,280,2012-12-21 17:15:00
12:35 PM,48.2,30.2,50,29.79,10.0,West,16.1,29.9,N/A,,Clear,280,2012-12-21 17:35:00
12:55 PM,48.2,30.2,50,29.78,10.0,West,23.0,32.2,N/A,,Clear,260,2012-12-21 17:55:00
1:15 PM,50.0,30.2,47,29.78,10.0,West,21.9,31.1,N/A,,Clear,270,2012-12-21 18:15:00
1:35 PM,50.0,30.2,47,29.79,10.0,West,23.0,35.7,N/A,,Scattered Clouds,270,2012-12-21 18:35:00
1:55 PM,50.0,30.2,47,29.78,10.0,WNW,19.6,28.8,N/A,,Clear,290,2012-12-21 18:55:00
2:15 PM,50.0,30.2,47,29.78,10.0,WNW,24.2,35.7,N/A,,Clear,290,2012-12-21 19:15:00
2:35 PM,50.0,30.2,47,29.79,10.0,West,24.2,34.5,N/A,,Clear,270,2012-12-21 19:35:00
2:55 PM,50.0,30.2,47,29.80,10.0,West,19.6,32.2,N/A,,Clear,270,2012-12-21 19:55:00
3:15 PM,50.0,28.4,43,29.81,10.0,West,18.4,33.4,N/A,,Scattered Clouds,280,2012-12-21 20:15:00
3:35 PM,50.0,28.4,43,29.80,10.0,West,23.0,31.1,N/A,,Scattered Clouds,270,2012-12-21 20:35:00
3:55 PM,48.2,28.4,46,29.82,10.0,West,18.4,31.1,N/A,,Scattered Clouds,270,2012-12-21 20:55:00
4:15 PM,48.2,28.4,46,29.83,10.0,West,17.3,28.8,N/A,,Scattered Clouds,280,2012-12-21 21:15:00
4:35 PM,46.4,28.4,50,29.84,10.0,West,19.6,27.6,N/A,,Clear,280,2012-12-21 21:35:00
4:55 PM,46.4,28.4,50,29.85,10.0,West,16.1,26.5,N/A,,Clear,270,2012-12-21 21:55:00
5:15 PM,44.6,28.4,53,29.85,10.0,West,11.5,-,N/A,,Clear,270,2012-12-21 22:15:00
5:35 PM,44.6,28.4,53,29.86,10.0,West,12.7,20.7,N/A,,Clear,270,2012-12-21 22:35:00
5:55 PM,44.6,28.4,53,29.88,10.0,West,6.9,-,N/A,,Clear,270,2012-12-21 22:55:00
6:15 PM,44.6,28.4,53,29.89,10.0,West,10.4,17.3,N/A,,Clear,270,2012-12-21 23:15:00
6:35 PM,44.6,28.4,53,29.90,10.0,West,10.4,17.3,N/A,,Clear,270,2012-12-21 23:35:00
6:55 PM,42.8,30.2,61,29.90,10.0,West,8.1,-,N/A,,Clear,260,2012-12-21 23:55:00
7:15 PM,42.8,30.2,61,29.90,10.0,West,8.1,-,N/A,,Clear,260,2012-12-22 00:15:00
7:35 PM,42.8,28.4,57,29.91,10.0,West,9.2,-,N/A,,Clear,270,2012-12-22 00:35:00
7:55 PM,42.8,28.4,57,29.92,10.0,West,10.4,16.1,N/A,,Clear,260,2012-12-22 00:55:00
8:15 PM,42.8,28.4,57,29.92,10.0,West,12.7,-,N/A,,Clear,260,2012-12-22 01:15:00
8:35 PM,42.8,28.4,57,29.93,10.0,West,11.5,-,N/A,,Clear,260,2012-12-22 01:35:00
8:55 PM,42.8,28.4,57,29.93,10.0,West,12.7,-,N/A,,Clear,260,2012-12-22 01:55:00
9:15 PM,41.0,30.2,65,29.93,10.0,WSW,6.9,-,N/A,,Clear,250,2012-12-22 02:15:00
9:35 PM,41.0,30.2,65,29.93,10.0,WSW,11.5,-,N/A,,Clear,250,2012-12-22 02:35:00
9:55 PM,41.0,30.2,65,29.94,10.0,West,8.1,-,N/A,,Clear,260,2012-12-22 02:55:00
10:15 PM,41.0,30.2,65,29.94,10.0,West,6.9,-,N/A,,Clear,260,2012-12-22 03:15:00
10:35 PM,41.0,30.2,65,29.95,10.0,West,8.1,-,N/A,,Clear,260,2012-12-22 03:35:00
10:55 PM,41.0,28.4,61,29.95,10.0,West,10.4,-,N/A,,Clear,260,2012-12-22 03:55:00
11:15 PM,41.0,28.4,61,29.95,10.0,West,8.1,-,N/A,,Clear,260,2012-12-22 04:15:00
11:35 PM,41.0,28.4,61,29.95,10.0,West,8.1,-,N/A,,Clear,260,2012-12-22 04:35:00
11:55 PM,41.0,28.4,61,29.95,10.0,West,10.4,16.1,N/A,,Clear,270,2012-12-22 04:55:00